Accueil
METAR-TAF:

METAR-TAF

Aéroports :

McMinnville, Oregon, États-Unis

latitude: 45-11-46N, longitude: 123-07-56W, altitude: 48 m

Observation

Le bulletin a été fait il y a 1 heure et 6 minutes, à 04:53 UTC
Vent 8 kt de ouest/sud-ouest
Température 9°C
Humidité 87%
Pression 1026 hPa
Visibilité: 16.1 km
Ciel clair

METAR: KMMV 220453Z AUTO 24008KT 10SM CLR 09/07 A3030 RMK AO2 SLP258 T00940067

Heure: 22:59 (05:59 UTC)


TAF: absent

Observations et prévisions météorologiques de plus de 4000 aéroports (messages METAR et TAF).

Les stations disponibles sont représentées par des disques jaunes et rouges sur la carte.

Passer la souris dessus pour voir le nom de la station.

Cliquer dessus pour voir les observations et prévisions météorologiques.

Pour changer de carte: cliquez sur les boutons verts avec une croix noire pour zoomer, sur le bouton vert avec un tiret pour effectuer un zoom arrière, ou sur les flèches vertes pour les cartes adjacentes.


METAR-TAF: